Weather History for KGLH - April, 2014

Change the Weather History Date:

Wednesday, April 16, 2014

  Actual Average Record
Temperature  
Mean Temperature 49 °F 63 °F  
Max Temperature 60 °F 75 °F 90 °F (1924)
Min Temperature 37 °F 52 °F 32 °F (1962)
Degree Days  
Heating Degree Days 16 4  
Month to date heating degree days 113 87  
Since 1 July heating degree days 3154 2732  
Cooling Degree Days 0 2  
Month to date cooling degree days 29 23  
Year to date cooling degree days 34 45  
Moisture  
Dew Point 35 °F    
Average Humidity 62    
Maximum Humidity 86    
Minimum Humidity 37    
Precipitation  
Precipitation 0.00 in 0.15 in 8.12 in (1927)
Month to date precipitation 6.12 2.73  
Year to date precipitation 15.93 17.27  
Sea Level Pressure  
Sea Level Pressure 30.22 in    
Wind  
Wind Speed 6 mph (ESE)    
Max Wind Speed 16 mph    
Max Gust Speed 21 mph    
Visibility 10 miles    
Events      
T = Trace of Precipitation, MM = Missing Value Source: NWS Daily Summary

Daily Weather History Graph

Daily Weather History Graph

Search for Another Location

Airport or City:

Trip Planner

Search our weather history database for the weather conditions in past years. The results will help you decide how hot, cold, wet, or windy it might be!

Date:

Astronomy

Apr. 16, 2014 Rise Set
Actual Time 6:32 AM CDT 7:35 PM CDT
Civil Twilight 6:06 AM CDT 8:01 PM CDT
Nautical Twilight 5:36 AM CDT 8:31 PM CDT
Astronomical Twilight 5:05 AM CDT 9:03 PM CDT
Moon 9:15 PM CDT (4/16) 7:22 AM CDT (4/16)
Length of Visible Light 13h 54m
Length of Day
13h 03m
Full, 98% of the Moon is Illuminated
Apr 16
Full
Apr 22
Last Quarter
Apr 29
New
May 6
First Quarter
May 14
Full

Hourly Weather History & Observations

Time (CDT) Temp. Windchill Dew Point Humidity Pressure Visibility Wind Dir Wind Speed Gust Speed Precip Events Conditions
12:53 AM 42.1 °F 38.4 °F 32.0 °F 67% 30.27 in 10.0 mi ENE 5.8 mph - N/A   Clear
1:53 AM 41.0 °F 38.0 °F 32.0 °F 70% 30.25 in 10.0 mi ENE 4.6 mph - N/A   Clear
2:53 AM 41.0 °F 37.1 °F 30.9 °F 67% 30.25 in 10.0 mi ENE 5.8 mph - N/A   Clear
3:53 AM 41.0 °F 36.4 °F 30.9 °F 67% 30.25 in 10.0 mi East 6.9 mph - N/A   Clear
4:53 AM 39.0 °F 34.8 °F 30.0 °F 70% 30.24 in 10.0 mi ENE 5.8 mph - N/A   Clear
5:53 AM 37.9 °F 35.5 °F 30.0 °F 73% 30.26 in 10.0 mi ENE 3.5 mph - N/A   Clear
6:53 AM 37.9 °F 33.5 °F 30.9 °F 76% 30.28 in 10.0 mi East 5.8 mph - N/A   Clear
7:53 AM 42.1 °F 37.1 °F 30.9 °F 65% 30.30 in 10.0 mi ESE 8.1 mph - N/A   Clear
8:53 AM 45.0 °F 38.2 °F 30.9 °F 58% 30.30 in 10.0 mi ESE 15.0 mph - N/A   Clear
9:53 AM 48.9 °F - 32.0 °F 52% 30.31 in 10.0 mi ESE 11.5 mph - N/A   Clear
10:53 AM 51.1 °F - 32.0 °F 48% 30.30 in 10.0 mi SE 8.1 mph - N/A   Clear
11:53 AM 54.0 °F - 34.0 °F 47% 30.28 in 10.0 mi SE 10.4 mph - N/A   Clear
12:53 PM 55.4 °F - 32.0 °F 41% 30.22 in 10.0 mi SE 6.9 mph - N/A   Clear
1:53 PM 55.9 °F - 33.1 °F 42% 30.22 in 10.0 mi South 10.4 mph 17.3 mph N/A   Clear
2:53 PM 57.0 °F - 33.1 °F 40% 30.19 in 10.0 mi Variable 4.6 mph - N/A   Clear
3:53 PM 59.0 °F - 35.1 °F 41% 30.17 in 10.0 mi Variable 4.6 mph - N/A   Clear
4:53 PM 59.0 °F - 33.8 °F 39% 30.13 in 10.0 mi ESE 3.5 mph - N/A   Clear
5:53 PM 59.0 °F - 37.9 °F 46% 30.14 in 10.0 mi SSE 6.9 mph - N/A   Clear
6:53 PM 59.0 °F - 37.9 °F 46% 30.13 in 10.0 mi SE 5.8 mph - N/A   Clear
7:53 PM 55.9 °F - 41.0 °F 57% 30.13 in 10.0 mi ESE 3.5 mph - N/A   Clear
8:53 PM 51.1 °F - 44.1 °F 77% 30.14 in 10.0 mi Calm Calm - N/A   Clear
9:53 PM 52.0 °F - 43.0 °F 71% 30.16 in 10.0 mi Calm Calm - N/A   Clear
10:53 PM 46.0 °F - 43.0 °F 89% 30.17 in 10.0 mi Calm Calm - N/A   Clear
11:53 PM 46.0 °F - 43.0 °F 89% 30.19 in 10.0 mi Calm Calm - N/A   Clear